Location: Lake Hudson State Recreational Area
(41.8372°N, 84.2445°W)
Time: 00:41:34
(UTC-04:00)

Hubble Space Telescope - Visible Passes

Search period start: 22 October 2017 00:00
Search period end: 01 November 2017 00:00
Orbit: 537 x 541 km, 28.5° (Epoch: 21 October)

Date Brightness Start Highest point End Pass type
(mag) Time Alt. Az. Time Alt. Az. Time Alt. Az.
23 Oct 3.2 19:57:42 10° S 19:58:43 11° S 19:59:44 10° SSE visible
24 Oct 3.2 19:46:55 10° SSW 19:48:23 12° S 19:49:51 10° SSE visible
25 Oct 3.2 19:36:22 10° SSW 19:38:04 12° S 19:39:46 10° SSE visible
26 Oct 3.2 19:25:55 10° SSW 19:27:44 13° S 19:29:33 10° SSE visible
27 Oct 3.3 19:15:34 10° SSW 19:17:25 13° S 19:19:14 10° SSE visible
28 Oct 3.3 19:05:18 10° SSW 19:07:05 12° S 19:08:50 10° SSE visible
